GALAXY 16 (G-16)

Last updated on Tue Sep 16 2025 00:02:46 GMT+0000 (Coordinated Universal Time)

1 29236U 06023A 25258.56490253 -.00000143 00000+0 00000+0 0 9996 2 29236 0.0217 196.1302 0002657 340.9151 282.0866 1.00271114 70218
UTC large
Height (km)
Speed (km/s)
/
Latitude / Longitude
Inclination (degrees)
Orbital Period (minutes)
Azimuth
Elevation
Range (km)
Doppler Factor

Next 0 passes for location: London (51.5072 / 0.1276)

Sorry there are no passes over London.